FREGAT DEB

Last updated on Wed Sep 11 2024 00:02:08 GMT+0000 (Coordinated Universal Time)

1 49271U 11037PF 24253.96446543 .00003329 00000+0 83084-2 0 9993 2 49271 51.6583 103.5044 0921981 309.7751 42.5336 12.20333913145541
UTC large
Height (km)
Speed (km/s)
/
Latitude / Longitude
Inclination (degrees)
Orbital Period (minutes)
Azimuth
Elevation
Range (km)
Doppler Factor

Next 0 passes for location: London (51.5072 / 0.1276)

Sorry there are no passes over London.